[[{"header":{"parameterUnit":"m.s-1","parameterCategory":1,"la1":30.2991,"la2":30.254,"lo1":-89.0895,"lo2":-89.0444,"dy":0.0017,"dx":0.0017,"nx":28,"ny":28,"refTime":"2024-03-19T03:00:00:Z","depth":0,"parameterNumber":2,"parameterNumberName":"U-component_of_WINDS"},"data":[0,0,0,0,0,0,0,0,0,0,0,0,0,0,0,0,0,0,0,0,0,0,0,0,0,0,0,0,0,0,0,0,0,0,0,0,0,0,0,0,0,0,0,0,0,0,0,0,0,0,0,0,0,0,0,0,0,0,3.6154,3.6155,0,3.6254,3.6256,3.6257,3.6236,3.6235,3.6233,3.6231,3.633,3.6334,3.6338,0,0,0,0,0,0,0,0,0,0,0,0,0,3.5939,3.5943,3.6154,3.6155,3.6157,3.6254,3.6256,3.6257,3.6237,3.6235,3.6232,3.623,3.6328,3.6333,3.6338,0,0,0,0,0,0,0,0,0,0,0,0,0,3.6035,3.5945,3.6154,3.6158,3.616,3.6254,3.6256,3.6257,3.6237,3.6234,3.6232,3.6229,3.6326,3.6333,3.6339,3.6434,0,0,3.6359,3.6362,0,0,0,0,0,0,0,0,3.603,3.6043,3.6156,3.6158,3.616,3.623,3.6216,3.6316,3.6238,3.6208,3.6231,3.6228,3.6298,3.6307,3.6332,3.6438,3.6443,3.6359,3.6363,3.6366,3.6368,0,0,0,0,0,0,0,3.6023,3.6039,3.6194,3.6158,3.616,3.6153,3.6164,3.6235,3.6267,3.621,3.6209,3.6221,3.6299,3.6325,3.6334,3.6444,3.6359,3.6365,3.6369,3.6372,3.6629,3.6632,0,0,0,0,0,0,3.6016,3.6033,3.619,3.6197,3.6087,3.616,3.6171,3.621,3.6266,3.6272,3.6224,3.622,3.6316,3.6326,3.6337,3.6449,3.6366,3.6372,3.6376,3.6626,3.663,3.6633,0,0,0,0,0,0,3.6011,3.603,3.6186,3.6115,3.6134,3.6166,3.621,3.6214,3.624,3.6276,3.6281,3.6245,3.6314,3.6328,3.6409,3.6452,3.6375,3.6381,3.6623,3.6627,3.6631,3.6674,0,0,0,0,0,0,3.6005,3.6028,3.6066,3.6116,3.6138,3.6259,3.6213,3.6218,3.6252,3.6248,3.6298,3.6304,3.6313,3.64,3.6416,3.6459,3.6386,3.6619,3.6625,3.663,3.6669,3.6679,3.6688,0,0,0,0,0,3.5998,3.6074,3.6068,3.6087,3.6186,3.6261,3.6274,3.6284,3.6256,3.6293,3.6315,3.6302,3.6445,3.6408,3.6426,3.6472,3.6616,3.6623,3.663,3.6664,3.6677,3.6688,0,0,0,0,0,0,3.6027,3.6081,3.6075,3.617,3.6211,3.6258,3.6305,3.6298,3.6347,3.6341,3.6351,3.6362,3.6444,3.6467,3.6425,3.6565,3.6526,3.6537,3.6547,3.6559,3.6569,3.656,3.6391,0,0,0,0,0,3.6046,3.6104,3.6146,3.6226,3.6247,3.6273,3.6306,3.631,3.6353,3.6369,3.6398,3.6439,3.6492,3.6528,3.6579,3.6673,3.6681,3.6713,3.6723,3.6731,3.6739,3.6786,3.68,3.6655,3.6655,3.6655,0,0,3.6083,3.6119,3.6155,3.6233,3.6265,3.6323,3.6287,3.6351,3.6392,3.6379,3.6456,3.6479,3.6525,3.6611,3.6651,3.6633,3.6781,3.6739,3.6745,3.6749,3.6794,3.6808,3.682,3.6659,3.6659,3.6658,0,0,3.6179,3.6214,3.6282,3.6316,3.6366,3.6382,3.6398,3.6446,3.646,3.6539,3.6529,3.6578,3.6672,3.6703,3.6732,3.6839,3.6827,3.6855,3.6905,3.6951,3.6962,3.6972,3.7007,3.702,3.6864,3.6864,3.6864,0,3.6218,3.6306,3.6318,3.6382,3.6415,3.6406,3.6474,3.6505,3.6569,3.6591,3.657,3.6686,3.6716,3.6808,3.6834,3.6859,3.6875,3.6848,3.696,3.697,3.698,3.7013,3.7026,3.6867,3.6866,3.6866,3.6866,0,3.635,3.6411,3.646,3.6522,3.6561,3.6627,3.6646,3.6684,3.6685,3.6703,3.6781,3.6817,3.6875,3.6898,3.6899,3.699,3.6976,3.6958,3.6919,3.6996,3.7027,3.704,3.6871,3.687,3.6869,3.6868,0,0,3.6467,3.6534,3.6552,3.6579,3.6633,3.6679,3.6743,3.68,3.683,3.6875,3.6926,3.7005,3.6988,3.702,3.7025,3.7066,3.7144,3.7042,3.7043,3.7057,3.7241,3.7252,3.7267,3.7138,3.714,3.7142,3.7236,0,3.6565,3.6679,3.6691,3.6792,3.6846,3.6839,3.6894,3.6931,3.6949,3.6997,3.7016,3.707,3.7045,3.7064,3.7105,3.7126,3.718,3.712,3.7182,3.7184,3.7168,3.7284,3.7296,3.7383,3.7249,3.7251,3.7252,0,3.6695,3.6743,3.685,3.6894,3.6917,3.6966,3.7018,3.7065,3.7106,3.7116,3.7152,3.7151,3.7214,3.7175,3.726,3.7218,3.7245,3.7259,3.7262,3.7266,3.7221,3.7287,3.7412,3.7423,3.7272,3.7271,3.7269,0,3.6765,3.6857,3.6931,3.6955,3.7009,3.7043,3.7067,3.7107,3.7139,3.7184,3.7205,3.7257,3.7284,3.7323,3.7335,3.7306,3.7418,3.7381,3.7425,3.7425,3.7447,3.7445,3.7574,3.747,3.747,3.747,3.7469,0,3.6872,3.6937,3.6963,3.7009,3.708,3.7092,3.7161,3.7183,3.7218,3.7265,3.7263,3.7307,3.7322,3.7368,3.7378,3.7445,3.7459,3.7466,3.7467,3.7464,3.7463,3.748,3.7472,3.7473,3.7472,3.7472,3.7471,0,3.6961,3.6982,3.7062,3.7107,3.712,3.7169,3.7206,3.7249,3.7266,3.7327,3.7341,3.7368,3.7422,3.7439,3.7504,3.7511,3.7588,3.7585,3.7574,3.7573,3.7615,3.7609,3.7757,3.7775,3.7662,3.7663,3.7664,0,3.7026,3.7076,3.7125,3.7158,3.7183,3.7235,3.7268,3.7282,3.7316,3.7367,3.7402,3.7456,3.75,3.7586,3.761,3.7659,3.7656,3.7704,3.7663,3.7657,3.7652,3.7647,3.7651,3.771,3.7712,3.7713,3.7713,0,3.7139,3.7146,3.7195,3.7247,3.7287,3.7328,3.7368,3.7394,3.7413,3.7451,3.7507,3.7541,3.7607,3.7659,3.7709,3.7731,3.7724,3.7727,3.7739,3.7735,3.7724,3.7727,3.7591,3.7722,3.7722,3.7721,3.772,3.772,3.7215,3.7257,3.7298,3.7352,3.7383,3.742,3.7461,3.7484,3.7531,3.7586,3.7592,3.7651,3.7689,3.7755,3.778,3.7825,3.7811,3.7829,3.7833,3.7837,3.7838,3.772,3.7834,3.7834,3.7834,3.7834,3.7834,0,3.7324,3.735,3.7399,3.7455,3.7496,3.7488,3.7531,3.7566,3.7618,3.7655,3.7698,3.776,3.7811,3.7838,3.7888,3.7918,3.7916,3.793,3.7927,3.7931,3.785,3.7833,3.7931,3.7931,3.7931,3.7931,3.7931,3.7931,3.7385,3.7455,3.7467,3.7551,3.7577,3.7635,3.766,3.7693,3.7722,3.7792,3.7834,3.7852,3.7884,3.7936,3.7981,3.7988,3.8004,3.802,3.8024,3.7947,3.7937,3.7928,3.7911,3.8024,3.8024,3.8101,3.8102,3.8102]},{"header":{"parameterUnit":"m.s-1","parameterCategory":1,"la1":30.2991,"la2":30.254,"lo1":-89.0895,"lo2":-89.0444,"dy":0.0017,"dx":0.0017,"nx":28,"ny":28,"refTime":"2024-03-19T03:00:00:Z","depth":0,"parameterNumber":3,"parameterNumberName":"V-component_of_WINDS"},"data":[0,0,0,0,0,0,0,0,0,0,0,0,0,0,0,0,0,0,0,0,0,0,0,0,0,0,0,0,0,0,0,0,0,0,0,0,0,0,0,0,0,0,0,0,0,0,0,0,0,0,0,0,0,0,0,0,0,0,0.9989,0.9989,0,0.9991,0.9991,0.9991,0.9959,0.9958,0.9957,0.9956,0.9959,0.996,0.9961,0,0,0,0,0,0,0,0,0,0,0,0,0,0.9958,0.9959,0.9989,0.9989,0.9989,0.9991,0.9991,0.9991,0.9959,0.9958,0.9957,0.9956,0.9959,0.996,0.9961,0,0,0,0,0,0,0,0,0,0,0,0,0,0.9967,0.9959,0.9989,0.9973,0.9972,0.9991,0.9991,0.9991,0.9959,0.9958,0.9957,0.9955,0.9959,0.996,0.9961,0.9995,0,0,0.9965,0.9966,0,0,0,0,0,0,0,0,0.9967,0.9968,0.9976,0.9975,0.9973,0.9973,0.9981,0.9992,0.996,0.9964,0.9956,0.9955,0.9965,0.9966,0.9969,0.9996,0.9996,0.9965,0.9966,0.9967,0.9967,0,0,0,0,0,0,0,0.9966,0.9968,0.999,0.9976,0.9974,0.9966,0.9966,0.9983,0.9972,0.9964,0.9961,0.9962,0.9964,0.9968,0.9969,0.9996,0.9965,0.9967,0.9967,0.9968,1.0049,1.005,0,0,0,0,0,0,0.9967,0.9968,0.999,0.999,0.9967,0.9968,0.9968,0.9975,0.9972,0.997,0.9963,0.996,0.9966,0.9967,0.9969,1.0008,0.9967,0.9968,0.9969,1.0047,1.0049,1.005,0,0,0,0,0,0,0.9967,0.997,0.999,0.9978,0.998,0.997,0.9978,0.9975,0.9979,0.9971,0.9969,0.9969,0.9965,0.9967,0.9989,1.0007,0.9969,0.997,1.0046,1.0048,1.005,1.0086,0,0,0,0,0,0,0.9966,0.997,0.9983,0.9979,0.9981,1.001,0.9979,0.9976,0.9981,0.9978,0.9976,0.9975,0.9964,0.9987,0.999,1.0009,0.9971,1.0044,1.0047,1.0049,1.0084,1.0089,1.0095,0,0,0,0,0,0.9965,0.9994,0.9984,0.9987,0.9997,1.0011,1.0012,0.9999,0.9983,0.9996,0.999,0.9975,1.0005,0.9989,0.9993,1.0012,1.0043,1.0046,1.0049,1.0081,1.0088,1.0094,0,0,0,0,0,0,1.0001,0.9993,0.9982,1.001,1.0011,1.0005,1.0021,1.0008,1.0014,1.0011,0.9995,0.9995,1.0019,1.0017,1.0,1.0044,1.0021,1.0025,1.0044,1.0051,1.0056,1.0056,0.9972,0,0,0,0,0,1.0012,1.0024,1.0016,1.0042,1.0043,1.0032,1.0038,1.0028,1.0029,1.0029,1.0026,1.0027,1.0037,1.0044,1.0052,1.0083,1.0082,1.0098,1.0103,1.0108,1.0111,1.0126,1.0133,1.006,1.006,1.006,0,0,1.0036,1.0033,1.0041,1.0049,1.0049,1.0061,1.0033,1.0048,1.0057,1.0032,1.0052,1.0049,1.005,1.0075,1.0087,1.0075,1.0131,1.0111,1.0115,1.0116,1.013,1.0137,1.0143,1.0062,1.0062,1.0062,0,0,1.0085,1.0084,1.0104,1.0104,1.0104,1.0096,1.0101,1.0097,1.0094,1.0113,1.0094,1.0105,1.0122,1.0123,1.0126,1.0173,1.0158,1.0176,1.0205,1.022,1.0226,1.023,1.0247,1.0253,1.018,1.018,1.018,0,1.0114,1.0132,1.0117,1.0132,1.0136,1.0112,1.0133,1.0134,1.0136,1.0139,1.0126,1.0146,1.0145,1.017,1.0181,1.0185,1.0189,1.0177,1.0226,1.0231,1.0235,1.025,1.0257,1.0182,1.0182,1.0181,1.0181,0,1.0168,1.018,1.0197,1.0199,1.0204,1.0222,1.0209,1.0216,1.0205,1.0199,1.0218,1.0216,1.0223,1.0228,1.0218,1.0252,1.0244,1.0229,1.0205,1.0244,1.0258,1.0264,1.0185,1.0184,1.0184,1.0183,0,0,1.0241,1.0233,1.0239,1.0239,1.0236,1.0246,1.0262,1.0268,1.0274,1.0277,1.029,1.0304,1.0289,1.0292,1.0281,1.0294,1.0331,1.0277,1.0277,1.0287,1.0366,1.0378,1.0385,1.0321,1.0322,1.0322,1.0366,0,1.0288,1.0315,1.0301,1.033,1.0341,1.0318,1.0332,1.0332,1.0326,1.0334,1.0327,1.0337,1.0317,1.0318,1.033,1.0324,1.0346,1.032,1.0332,1.0333,1.0333,1.0393,1.0406,1.0447,1.0372,1.0373,1.0373,0,1.0347,1.0351,1.0381,1.0374,1.0378,1.0391,1.0394,1.0403,1.0401,1.0396,1.0398,1.0384,1.0399,1.0376,1.0396,1.0378,1.0382,1.038,1.0381,1.0382,1.0356,1.0395,1.046,1.0466,1.0382,1.0381,1.0381,0,1.0397,1.0409,1.0428,1.0429,1.0422,1.0431,1.0429,1.0426,1.043,1.0433,1.0436,1.0441,1.0444,1.0448,1.0435,1.0419,1.0457,1.0432,1.0453,1.0453,1.0462,1.0462,1.0529,1.0465,1.0465,1.0465,1.0464,0,1.0451,1.047,1.045,1.0462,1.0482,1.0465,1.0486,1.0481,1.0479,1.0489,1.0469,1.0479,1.0462,1.047,1.046,1.0478,1.048,1.0475,1.0473,1.0477,1.0478,1.048,1.0477,1.0466,1.0466,1.0466,1.0465,0,1.0511,1.0498,1.0517,1.0508,1.0506,1.0522,1.0514,1.0525,1.0516,1.0529,1.0532,1.0519,1.0527,1.0515,1.0522,1.0515,1.054,1.0533,1.054,1.0538,1.0559,1.0557,1.0629,1.0638,1.0569,1.0569,1.057,0,1.0546,1.056,1.0552,1.0557,1.0556,1.0564,1.0568,1.0551,1.0556,1.0554,1.0564,1.0571,1.0575,1.059,1.0581,1.0586,1.0579,1.0604,1.058,1.0583,1.0579,1.0578,1.0579,1.0609,1.061,1.0611,1.0611,0,1.061,1.0603,1.0609,1.0612,1.0616,1.0618,1.0618,1.0624,1.0606,1.0612,1.062,1.0623,1.063,1.0636,1.0639,1.0636,1.0621,1.0619,1.0623,1.0628,1.0632,1.063,1.0554,1.0617,1.0617,1.0616,1.0616,1.0616,1.0659,1.0669,1.0665,1.0672,1.067,1.067,1.0679,1.0671,1.0677,1.0681,1.0671,1.0681,1.0677,1.0679,1.0678,1.0685,1.0674,1.0682,1.0683,1.0686,1.0689,1.0631,1.0686,1.0686,1.0685,1.0685,1.0685,0,1.0721,1.0717,1.0723,1.0723,1.0728,1.0712,1.0711,1.0717,1.0726,1.0724,1.0728,1.0736,1.0742,1.0733,1.0737,1.0745,1.0738,1.0746,1.0746,1.0745,1.0698,1.0694,1.0752,1.0752,1.0752,1.0752,1.0752,1.0752,1.0755,1.0772,1.0763,1.0779,1.0774,1.0783,1.0784,1.0784,1.0782,1.0792,1.0796,1.079,1.0785,1.0789,1.0793,1.079,1.0793,1.0804,1.0799,1.0755,1.0749,1.0742,1.0738,1.0804,1.0804,1.0844,1.0845,1.0845]}]]